Date String (YYYY-MM-DD hh:mm:ss) UTC,Instrument flags,absolute air pressure of the measurement (hPa),sample flow rate (lpm),inlet stack bypass flow (lpm),air temperature of the measurement (°C),ambient temperature measured by the external sensor (°C),aerosol sample conditioner tube jacket temperature (°C),OPC LED temperature (°C),internal box temperature (°C),relative humidity of the measurement (%),span deviation,mass concentration of particles derived from Lorenz-Mie calculation of OPC scattering (μg/m³),mass concentration of particles derived from Lorenz-Mie calculation of OPC scattering (μg/m³),mass concentration of particles derived from Lorenz-Mie calculation of OPC scattering (μg/m³)
DateTimeUTC,F1_M11,P_M11,Q1_M11,Q2_M11,T1_M11,T2_M11,T3_M11,T4_M11,T5_M11,U1_M11,ZSPAN_M11,X0_M11,X2_M11,X1_M11
2024-06-05 17:00:00,SystemResetWarning,0828.5,4.99,000.00,028.9,026.5,000.0,037.6,030.0,017.0,0000.0,0012.82,0002.14,0000.81
2024-06-05 17:01:00,SystemResetWarning,0828.5,5.00,000.00,028.9,026.9,000.0,037.5,030.2,017.3,0000.0,0014.05,0002.12,0000.81
2024-06-05 17:02:00,SystemResetWarning,0828.4,5.00,000.00,028.9,027.3,000.0,037.4,030.4,017.1,0000.0,0014.67,0002.20,0000.83
2024-06-05 17:03:00,SystemResetWarning,0828.4,4.99,000.00,029.0,027.6,000.0,037.4,030.6,015.7,0000.0,0015.45,0002.26,0000.84
2024-06-05 17:04:00,SystemResetWarning,0828.3,5.00,000.00,029.0,028.0,000.0,037.4,030.7,016.9,0000.0,0015.33,0002.18,0000.82
2024-06-05 17:05:00,SystemResetWarning,0828.4,5.00,000.00,029.1,028.2,000.0,037.4,030.8,017.4,0000.0,0015.20,0002.13,0000.80
2024-06-05 17:06:00,SystemResetWarning,0828.4,5.00,000.00,029.2,028.4,000.0,037.4,031.0,016.9,0000.0,0015.19,0002.07,0000.80
2024-06-05 17:07:00,SystemResetWarning,0828.4,5.01,000.00,029.2,028.6,000.0,037.4,031.1,016.7,0000.0,0015.52,0002.04,0000.80
2024-06-05 17:08:00,SystemResetWarning,0828.4,5.00,000.00,029.3,028.8,000.0,037.4,031.1,016.0,0000.0,0015.19,0001.92,0000.79
2024-06-05 17:09:00,SystemResetWarning,0828.4,5.00,000.00,029.4,028.9,000.0,037.5,031.2,017.7,0000.0,0012.90,0001.75,0000.76
2024-06-05 17:10:00,SystemResetWarning,0828.5,4.99,000.00,029.5,029.1,000.0,037.5,031.3,017.1,0000.0,0012.08,0001.59,0000.73
2024-06-05 17:11:00,SystemResetWarning,0828.5,5.00,000.00,029.5,029.2,000.0,037.5,031.4,016.9,0000.0,0011.37,0001.53,0000.71
2024-06-05 17:12:00,SystemResetWarning,0828.4,4.99,000.00,029.5,028.7,000.0,037.6,031.1,017.0,0000.0,0009.91,0001.44,0000.68
2024-06-05 17:13:00,SystemResetWarning,0828.4,5.00,000.00,029.3,026.7,000.0,037.7,030.2,017.3,0000.0,0008.56,0001.32,0000.66
2024-06-05 17:14:00,SystemResetWarning,0828.4,5.02,000.00,029.0,026.0,000.0,037.7,029.9,017.0,0000.0,0007.47,0001.22,0000.64
2024-06-05 17:15:00,SystemResetWarning,0828.4,5.00,000.00,028.9,026.6,000.0,037.6,030.0,016.9,0000.0,0007.63,0001.26,0000.64
2024-06-05 17:16:00,SystemResetWarning,0828.4,4.99,000.00,028.9,027.0,000.0,037.5,030.3,016.9,0000.0,0007.47,0001.30,0000.63
2024-06-05 17:17:00,SystemResetWarning,0828.4,5.00,000.00,029.0,027.4,000.0,037.4,030.5,016.7,0000.0,0007.37,0001.31,0000.62
2024-06-05 17:18:00,SystemResetWarning,0828.4,5.00,000.00,029.0,027.7,000.0,037.4,030.6,016.7,0000.0,0006.44,0001.27,0000.61
2024-06-05 17:19:00,SystemResetWarning,0828.4,5.00,000.00,029.1,028.0,000.0,037.4,030.8,017.1,0000.0,0006.88,0001.26,0000.60
2024-06-05 17:20:00,SystemResetWarning,0828.4,5.00,000.00,029.1,028.3,000.0,037.4,030.9,016.9,0000.0,0006.44,0001.23,0000.60
2024-06-05 17:21:00,SystemResetWarning,0828.4,5.00,000.00,029.2,028.5,000.0,037.4,031.0,017.0,0000.0,0005.13,0001.23,0000.59
2024-06-05 17:22:00,SystemResetWarning,0828.4,5.00,000.00,029.3,028.6,000.0,037.4,031.1,016.7,0000.0,0004.69,0001.21,0000.59
2024-06-05 17:23:00,SystemResetWarning,0828.4,5.01,000.00,029.4,028.8,000.0,037.4,031.2,017.0,0000.0,0005.59,0001.20,0000.59
2024-06-05 17:24:00,SystemResetWarning,0828.4,4.99,000.00,029.4,028.9,000.0,037.5,031.3,016.7,0000.0,0005.80,0001.24,0000.58
2024-06-05 17:25:00,SystemResetWarning,0828.4,4.99,000.00,029.5,029.0,000.0,037.5,031.3,017.1,0000.0,0005.74,0001.24,0000.58
2024-06-05 17:26:00,SystemResetWarning,0828.4,4.99,000.00,029.6,029.2,000.0,037.5,031.4,016.5,0000.0,0005.46,0001.21,0000.57
2024-06-05 17:27:00,SystemResetWarning,0828.5,4.99,000.00,029.6,028.6,000.0,037.6,031.1,016.1,0000.0,0005.32,0001.18,0000.57
2024-06-05 17:28:00,SystemResetWarning,0828.4,5.01,000.00,029.2,026.4,000.0,037.7,030.1,016.0,0000.0,0005.22,0001.15,0000.58
2024-06-05 17:29:00,SystemResetWarning,0828.4,5.02,000.00,028.9,025.9,000.0,037.7,029.8,016.5,0000.0,0005.14,0001.14,0000.58
2024-06-05 17:30:00,SystemResetWarning,0828.4,5.00,000.00,028.9,026.5,000.0,037.6,030.0,016.8,0000.0,0004.61,0001.12,0000.58
2024-06-05 17:31:00,SystemResetWarning,0828.4,5.00,000.00,028.9,026.9,000.0,037.5,030.2,017.2,0000.0,0006.54,0001.28,0000.58
2024-06-05 17:32:00,SystemResetWarning,0828.4,5.00,000.00,028.9,027.3,000.0,037.4,030.4,017.1,0000.0,0006.93,0001.34,0000.59
2024-06-05 17:33:00,SystemResetWarning,0828.4,5.01,000.00,029.0,027.6,000.0,037.4,030.6,017.1,0000.0,0006.86,0001.33,0000.60
2024-06-05 17:34:00,SystemResetWarning,0828.4,5.00,000.00,029.0,028.0,000.0,037.4,030.7,017.1,0000.0,0006.15,0001.32,0000.60
2024-06-05 17:35:00,SystemResetWarning,0828.5,4.99,000.00,029.1,028.2,000.0,037.4,030.8,017.0,0000.0,0005.88,0001.28,0000.61
2024-06-05 17:36:00,SystemResetWarning,0828.5,5.00,000.00,029.2,028.4,000.0,037.4,030.9,018.1,0000.0,0005.97,0001.26,0000.61
2024-06-05 17:37:00,SystemResetWarning,0828.4,4.99,000.00,029.2,028.6,000.0,037.4,031.0,017.6,0000.0,0006.07,0001.26,0000.62
2024-06-05 17:38:00,SystemResetWarning,0828.5,5.00,000.00,029.3,028.8,000.0,037.4,031.1,017.4,0000.0,0005.99,0001.29,0000.63
2024-06-05 17:39:00,SystemResetWarning,0828.4,5.00,000.00,029.4,028.9,000.0,037.5,031.2,016.8,0000.0,0006.77,0001.30,0000.63
2024-06-05 17:40:00,SystemResetWarning,0828.4,5.00,000.00,029.4,028.8,000.0,037.5,031.1,016.7,0000.0,0006.95,0001.33,0000.63
2024-06-05 17:41:00,SystemResetWarning,0828.4,4.99,000.00,029.2,026.9,000.0,037.6,030.2,017.2,0000.0,0007.10,0001.37,0000.65
2024-06-05 17:42:00,SystemResetWarning,0828.4,5.01,000.00,028.8,025.5,000.0,037.6,029.6,017.2,0000.0,0005.24,0001.25,0000.65
2024-06-05 17:43:00,SystemResetWarning,0828.4,5.01,000.00,028.7,026.1,000.0,037.5,029.8,018.2,0000.0,0004.28,0001.15,0000.63
2024-06-05 17:44:00,SystemResetWarning,0828.5,5.00,000.00,028.7,026.6,000.0,037.4,030.0,018.8,0000.0,0004.29,0001.15,0000.63
2024-06-05 17:45:00,SystemResetWarning,0828.4,5.00,000.00,028.8,027.0,000.0,037.3,030.2,018.5,0000.0,0004.69,0001.20,0000.63
2024-06-05 17:46:00,SystemResetWarning,0828.4,5.00,000.00,028.8,027.4,000.0,037.3,030.4,018.1,0000.0,0005.21,0001.20,0000.63
2024-06-05 17:47:00,SystemResetWarning,0828.4,5.00,000.00,028.9,027.8,000.0,037.3,030.6,018.5,0000.0,0005.37,0001.18,0000.62
2024-06-05 17:48:00,SystemResetWarning,0828.4,5.00,000.00,028.9,028.1,000.0,037.3,030.7,017.8,0000.0,0006.77,0001.20,0000.62
2024-06-05 17:49:00,SystemResetWarning,0828.3,4.99,000.00,029.0,028.3,000.0,037.3,030.8,017.7,0000.0,0007.78,0001.22,0000.62
2024-06-05 17:50:00,SystemResetWarning,0828.4,5.00,000.00,029.1,028.5,000.0,037.3,030.9,017.4,0000.0,0007.89,0001.24,0000.63
2024-06-05 17:51:00,SystemResetWarning,0828.4,5.01,000.00,029.1,028.7,000.0,037.3,031.0,017.1,0000.0,0008.30,0001.25,0000.62
2024-06-05 17:52:00,SystemResetWarning,0828.5,5.01,000.00,029.2,028.8,000.0,037.4,031.1,017.4,0000.0,0008.96,0001.23,0000.61
2024-06-05 17:53:00,SystemResetWarning,0828.4,5.00,000.00,029.3,028.9,000.0,037.4,031.2,017.2,0000.0,0009.45,0001.25,0000.61
2024-06-05 17:54:00,SystemResetWarning,0828.4,4.99,000.00,029.3,028.7,000.0,037.4,031.0,017.4,0000.0,0009.76,0001.31,0000.61
2024-06-05 17:55:00,SystemResetWarning,0828.4,5.00,000.00,029.1,026.6,000.0,037.5,030.0,017.7,0000.0,0009.94,0001.34,0000.62
2024-06-05 17:56:00,SystemResetWarning,0828.4,5.02,000.00,028.7,025.7,000.0,037.5,029.5,017.7,0000.0,0009.52,0001.32,0000.62
2024-06-05 17:57:00,SystemResetWarning,0828.4,5.00,000.00,028.7,026.3,000.0,037.4,029.8,018.0,0000.0,0009.02,0001.31,0000.62
2024-06-05 17:58:00,SystemResetWarning,0828.3,5.00,000.00,028.7,026.7,000.0,037.3,030.0,018.0,0000.0,0008.86,0001.34,0000.63
2024-06-05 17:59:00,SystemResetWarning,0828.4,5.00,000.00,028.7,027.1,000.0,037.3,030.3,017.7,0000.0,0008.29,0001.31,0000.63
